[[{"header":{"parameterUnit":"m.s-1","parameterCategory":1,"la1":30.2991,"la2":30.254,"lo1":-89.0895,"lo2":-89.0444,"dy":0.0017,"dx":0.0017,"nx":28,"ny":28,"refTime":"2025-07-02T21:00:00:Z","depth":0,"parameterNumber":2,"parameterNumberName":"U-component_of_WINDS"},"data":[0,0,0,0,0,0,0,0,0,0,0,0,0,0,0,0,0,0,0,0,0,0,0,0,0,0,0,0,0,0,0,0,0,0,0,0,0,0,0,0,0,0,0,0,0,0,0,0,0,0,0,0,0,0,0,0,0,0,-0.5403,-0.5402,0,-0.5303,-0.5302,-0.5301,-0.5289,-0.529,-0.5291,-0.5292,-0.518,-0.5176,-0.5172,0,0,0,0,0,0,0,0,0,0,0,0,0,-0.5572,-0.5569,-0.5403,-0.5402,-0.5401,-0.5304,-0.5302,-0.5301,-0.5289,-0.529,-0.5291,-0.5292,-0.5181,-0.5176,-0.5172,0,0,0,0,0,0,0,0,0,0,0,0,0,-0.5488,-0.5568,-0.5403,-0.5383,-0.538,-0.5304,-0.5302,-0.53,-0.5289,-0.529,-0.5292,-0.5293,-0.5183,-0.5177,-0.5171,-0.5105,0,0,-0.5153,-0.5151,0,0,0,0,0,0,0,0,-0.5493,-0.5482,-0.5387,-0.5384,-0.5381,-0.531,-0.5321,-0.5234,-0.5288,-0.5323,-0.5292,-0.5294,-0.5221,-0.5212,-0.519,-0.5099,-0.5095,-0.5153,-0.5149,-0.5146,-0.5145,0,0,0,0,0,0,0,-0.5499,-0.5486,-0.5363,-0.5386,-0.5382,-0.5375,-0.5365,-0.5304,-0.5265,-0.532,-0.5319,-0.5308,-0.522,-0.5196,-0.5187,-0.5093,-0.5153,-0.5148,-0.5144,-0.5142,-0.4938,-0.4936,0,0,0,0,0,0,-0.551,-0.5491,-0.5367,-0.536,-0.5442,-0.5371,-0.536,-0.5331,-0.5265,-0.5257,-0.5307,-0.5308,-0.5205,-0.5194,-0.5183,-0.5097,-0.5147,-0.5141,-0.5138,-0.4939,-0.4937,-0.4935,0,0,0,0,0,0,-0.5513,-0.5499,-0.5371,-0.5425,-0.5409,-0.5367,-0.5335,-0.5329,-0.5305,-0.5255,-0.5247,-0.529,-0.5206,-0.5192,-0.5124,-0.5094,-0.5138,-0.5133,-0.4942,-0.4939,-0.4936,-0.4928,0,0,0,0,0,0,-0.5518,-0.55,-0.5477,-0.5425,-0.5406,-0.5316,-0.5333,-0.5326,-0.5296,-0.5296,-0.5238,-0.5229,-0.5206,-0.5133,-0.5118,-0.5086,-0.5128,-0.4944,-0.494,-0.4937,-0.4931,-0.4925,-0.492,0,0,0,0,0,-0.5524,-0.5478,-0.5476,-0.5461,-0.5377,-0.5315,-0.5303,-0.528,-0.5294,-0.5268,-0.5236,-0.5231,-0.51,-0.5126,-0.5109,-0.5075,-0.4946,-0.4941,-0.4937,-0.4933,-0.4926,-0.4921,0,0,0,0,0,0,-0.5524,-0.547,-0.5468,-0.5404,-0.5364,-0.5313,-0.528,-0.5275,-0.5228,-0.5229,-0.52,-0.5187,-0.5119,-0.5091,-0.5121,-0.5005,-0.5024,-0.5016,-0.5026,-0.5019,-0.5014,-0.5021,-0.5124,0,0,0,0,0,-0.5518,-0.5475,-0.5429,-0.5376,-0.5357,-0.5322,-0.5294,-0.528,-0.5236,-0.5218,-0.5182,-0.5136,-0.5084,-0.5051,-0.5001,-0.4928,-0.4911,-0.4895,-0.489,-0.4887,-0.4879,-0.4833,-0.4824,-0.4921,-0.4921,-0.4921,0,0,-0.5501,-0.5467,-0.5441,-0.5375,-0.5343,-0.5295,-0.5308,-0.5258,-0.5221,-0.521,-0.5143,-0.5115,-0.5062,-0.499,-0.4957,-0.4964,-0.4849,-0.4881,-0.4878,-0.4872,-0.4828,-0.4818,-0.481,-0.4918,-0.4919,-0.4919,0,0,-0.5447,-0.5419,-0.5371,-0.5338,-0.529,-0.5267,-0.5255,-0.5204,-0.5185,-0.5119,-0.5109,-0.5063,-0.4976,-0.4937,-0.4906,-0.4836,-0.4828,-0.4821,-0.4792,-0.4748,-0.474,-0.4733,-0.4704,-0.4694,-0.4814,-0.4814,-0.4814,0,-0.5432,-0.5364,-0.5345,-0.5295,-0.5265,-0.5256,-0.5203,-0.5172,-0.5108,-0.5085,-0.5096,-0.4984,-0.4948,-0.4865,-0.4848,-0.4825,-0.4806,-0.4826,-0.4744,-0.4737,-0.4729,-0.4701,-0.469,-0.4813,-0.4813,-0.4813,-0.4813,0,-0.5346,-0.5299,-0.5265,-0.5206,-0.5172,-0.5121,-0.509,-0.5057,-0.5046,-0.502,-0.495,-0.4907,-0.4846,-0.4826,-0.4814,-0.474,-0.4746,-0.4751,-0.4768,-0.472,-0.4692,-0.4681,-0.4812,-0.4812,-0.4812,-0.4812,0,0,-0.5287,-0.522,-0.5207,-0.5178,-0.5124,-0.5085,-0.5032,-0.4975,-0.4945,-0.4902,-0.4853,-0.4779,-0.4782,-0.4747,-0.473,-0.4692,-0.4633,-0.4701,-0.4699,-0.4686,-0.4543,-0.4537,-0.4525,-0.4629,-0.4627,-0.4626,-0.4546,0,-0.5224,-0.5133,-0.5113,-0.5032,-0.4985,-0.4976,-0.4929,-0.4888,-0.4862,-0.4815,-0.4786,-0.4732,-0.4744,-0.4721,-0.4684,-0.4649,-0.4603,-0.4655,-0.4578,-0.4576,-0.4588,-0.4511,-0.4504,-0.4431,-0.4535,-0.4534,-0.4532,0,-0.5138,-0.5094,-0.5009,-0.4958,-0.4938,-0.4896,-0.4841,-0.4798,-0.475,-0.4734,-0.4694,-0.4681,-0.462,-0.4644,-0.4557,-0.4592,-0.4559,-0.4537,-0.4534,-0.4522,-0.4548,-0.4492,-0.4408,-0.4395,-0.4516,-0.4517,-0.4518,0,-0.5098,-0.5018,-0.4956,-0.4932,-0.4873,-0.4843,-0.4816,-0.477,-0.4736,-0.4687,-0.4663,-0.4607,-0.4575,-0.4529,-0.4499,-0.452,-0.4413,-0.4435,-0.4393,-0.4393,-0.4367,-0.4369,-0.4272,-0.4354,-0.4354,-0.4355,-0.4355,0,-0.5026,-0.4973,-0.4937,-0.4898,-0.4837,-0.4814,-0.4753,-0.4725,-0.4684,-0.4636,-0.4625,-0.4579,-0.4545,-0.4493,-0.4469,-0.4398,-0.4384,-0.4365,-0.4359,-0.4364,-0.4366,-0.4339,-0.4341,-0.4352,-0.4352,-0.4353,-0.4353,0,-0.497,-0.4944,-0.4875,-0.4825,-0.4811,-0.4767,-0.4722,-0.4682,-0.4657,-0.4596,-0.458,-0.4539,-0.4477,-0.4444,-0.4366,-0.435,-0.4268,-0.4267,-0.4285,-0.4281,-0.424,-0.4242,-0.4118,-0.4099,-0.4199,-0.4198,-0.4198,0,-0.4924,-0.4883,-0.4829,-0.4798,-0.4771,-0.4721,-0.4687,-0.4662,-0.4626,-0.4567,-0.4532,-0.4471,-0.442,-0.4321,-0.4281,-0.4221,-0.4214,-0.4175,-0.4205,-0.421,-0.4207,-0.4209,-0.4202,-0.4169,-0.4168,-0.4167,-0.4166,0,-0.4844,-0.4833,-0.4786,-0.4733,-0.4694,-0.465,-0.4607,-0.4581,-0.4549,-0.4508,-0.4447,-0.4408,-0.4329,-0.4266,-0.4202,-0.4169,-0.4159,-0.4158,-0.4144,-0.4147,-0.4157,-0.4146,-0.4266,-0.416,-0.4161,-0.4161,-0.4161,-0.4162,-0.4788,-0.475,-0.4705,-0.4652,-0.4618,-0.4577,-0.4536,-0.4506,-0.4456,-0.4391,-0.4379,-0.4313,-0.4261,-0.4175,-0.4141,-0.4085,-0.4092,-0.4073,-0.4068,-0.4062,-0.4058,-0.417,-0.4074,-0.4074,-0.4074,-0.4074,-0.4074,0,-0.4702,-0.4673,-0.4625,-0.4566,-0.4523,-0.4524,-0.4475,-0.4438,-0.4381,-0.4336,-0.4287,-0.4213,-0.4152,-0.4108,-0.4044,-0.4007,-0.4001,-0.399,-0.399,-0.3982,-0.4058,-0.4074,-0.3996,-0.3996,-0.3996,-0.3996,-0.3997,-0.3997,-0.4653,-0.4587,-0.457,-0.4486,-0.4456,-0.4393,-0.4365,-0.4326,-0.4289,-0.4209,-0.4159,-0.4133,-0.4086,-0.4018,-0.396,-0.3948,-0.3922,-0.3912,-0.3898,-0.3969,-0.3977,-0.3985,-0.4,-0.3908,-0.3908,-0.3826,-0.3825,-0.3825]},{"header":{"parameterUnit":"m.s-1","parameterCategory":1,"la1":30.2991,"la2":30.254,"lo1":-89.0895,"lo2":-89.0444,"dy":0.0017,"dx":0.0017,"nx":28,"ny":28,"refTime":"2025-07-02T21:00:00:Z","depth":0,"parameterNumber":3,"parameterNumberName":"V-component_of_WINDS"},"data":[0,0,0,0,0,0,0,0,0,0,0,0,0,0,0,0,0,0,0,0,0,0,0,0,0,0,0,0,0,0,0,0,0,0,0,0,0,0,0,0,0,0,0,0,0,0,0,0,0,0,0,0,0,0,0,0,0,0,-1.0391,-1.039,0,-1.0283,-1.0282,-1.0281,-1.0259,-1.026,-1.026,-1.0261,-1.0144,-1.014,-1.0137,0,0,0,0,0,0,0,0,0,0,0,0,0,-1.0572,-1.0569,-1.0391,-1.039,-1.0389,-1.0283,-1.0282,-1.028,-1.0259,-1.026,-1.0261,-1.0262,-1.0145,-1.0141,-1.0136,0,0,0,0,0,0,0,0,0,0,0,0,0,-1.0481,-1.0568,-1.0392,-1.0365,-1.0362,-1.0284,-1.0282,-1.028,-1.0258,-1.026,-1.0261,-1.0262,-1.0147,-1.0141,-1.0136,-1.0074,0,0,-1.0118,-1.0115,0,0,0,0,0,0,0,0,-1.0487,-1.0475,-1.0371,-1.0367,-1.0363,-1.0286,-1.0302,-1.0211,-1.0258,-1.0297,-1.0261,-1.0263,-1.019,-1.0181,-1.0157,-1.0068,-1.0063,-1.0117,-1.0114,-1.0111,-1.0109,0,0,0,0,0,0,0,-1.0493,-1.0479,-1.0348,-1.0369,-1.0364,-1.0356,-1.0345,-1.0285,-1.0238,-1.0294,-1.0292,-1.028,-1.0188,-1.0163,-1.0154,-1.0062,-1.0117,-1.0112,-1.0108,-1.0106,-0.9912,-0.9911,0,0,0,0,0,0,-1.0505,-1.0485,-1.0352,-1.0345,-1.0429,-1.0352,-1.0339,-1.0309,-1.0238,-1.0229,-1.0279,-1.028,-1.0172,-1.0161,-1.015,-1.007,-1.0111,-1.0106,-1.0102,-0.9914,-0.9912,-0.991,0,0,0,0,0,0,-1.0509,-1.0493,-1.0356,-1.0414,-1.0396,-1.0348,-1.0314,-1.0306,-1.0281,-1.0227,-1.0218,-1.0263,-1.0173,-1.0158,-1.0093,-1.0066,-1.0103,-1.0098,-0.9916,-0.9913,-0.9911,-0.9912,0,0,0,0,0,0,-1.0514,-1.0495,-1.0473,-1.0414,-1.0393,-1.0303,-1.0313,-1.0303,-1.0272,-1.0272,-1.0209,-1.02,-1.0173,-1.0101,-1.0087,-1.0058,-1.0093,-0.9918,-0.9915,-0.9912,-0.9914,-0.991,-0.9906,0,0,0,0,0,-1.052,-1.0477,-1.0472,-1.0456,-1.0365,-1.0301,-1.0289,-1.026,-1.027,-1.0246,-1.0211,-1.0202,-1.0072,-1.0095,-1.0078,-1.0048,-0.992,-0.9916,-0.9912,-0.9916,-0.991,-0.9906,0,0,0,0,0,0,-1.0532,-1.0469,-1.0462,-1.0399,-1.0356,-1.0298,-1.0267,-1.0257,-1.0208,-1.0209,-1.0174,-1.016,-1.0095,-1.0065,-1.0092,-0.9982,-0.9996,-0.9989,-1.0004,-0.9999,-0.9995,-1.0002,-1.0088,0,0,0,0,0,-1.0527,-1.0483,-1.0429,-1.0378,-1.0357,-1.0316,-1.0287,-1.0268,-1.0221,-1.0202,-1.0162,-1.0115,-1.0063,-1.003,-0.998,-0.991,-0.9894,-0.9881,-0.9877,-0.9874,-0.9867,-0.9824,-0.9817,-0.9898,-0.9898,-0.9898,0,0,-1.0516,-1.0476,-1.045,-1.0379,-1.0344,-1.0295,-1.03,-1.025,-1.0213,-1.0194,-1.0129,-1.0098,-1.0043,-0.9974,-0.9942,-0.9947,-0.9841,-0.9869,-0.9867,-0.9862,-0.982,-0.9812,-0.9805,-0.9896,-0.9896,-0.9897,0,0,-1.0471,-1.0439,-1.0391,-1.0355,-1.0302,-1.0274,-1.0263,-1.0206,-1.0185,-1.012,-1.0104,-1.0058,-0.9971,-0.9931,-0.9899,-0.9838,-0.9826,-0.9822,-0.9801,-0.9759,-0.9753,-0.9747,-0.9721,-0.9713,-0.9816,-0.9816,-0.9816,0,-1.0464,-1.0393,-1.0367,-1.0317,-1.0284,-1.0267,-1.0216,-1.0182,-1.0114,-1.0091,-1.0098,-0.9986,-0.9948,-0.9868,-0.9853,-0.9829,-0.9812,-0.9828,-0.9757,-0.975,-0.9744,-0.9719,-0.971,-0.9816,-0.9816,-0.9816,-0.9816,0,-1.0385,-1.0336,-1.0303,-1.0239,-1.0203,-1.0153,-1.0116,-1.0083,-1.0067,-1.0038,-0.997,-0.9924,-0.9862,-0.9842,-0.9827,-0.9758,-0.9763,-0.9764,-0.9776,-0.9736,-0.9712,-0.9702,-0.9815,-0.9816,-0.9816,-0.9816,0,0,-1.0343,-1.0265,-1.0253,-1.0222,-1.0162,-1.0122,-1.0069,-1.0011,-0.9981,-0.9934,-0.9887,-0.9813,-0.9812,-0.9777,-0.9756,-0.972,-0.967,-0.9725,-0.9723,-0.9713,-0.9587,-0.9584,-0.9574,-0.9663,-0.9661,-0.966,-0.9591,0,-1.0288,-1.0197,-1.017,-1.0091,-1.0043,-1.0026,-0.9979,-0.9935,-0.9906,-0.9859,-0.9827,-0.9773,-0.9779,-0.9757,-0.9721,-0.9684,-0.9643,-0.9689,-0.9615,-0.9612,-0.9626,-0.9562,-0.9559,-0.9496,-0.9581,-0.958,-0.9579,0,-1.0212,-1.0165,-1.0082,-1.0025,-1.0003,-0.9963,-0.9905,-0.9862,-0.981,-0.9791,-0.9751,-0.9733,-0.9674,-0.9692,-0.9608,-0.9639,-0.9608,-0.9585,-0.9581,-0.957,-0.9591,-0.9545,-0.9475,-0.9464,-0.9564,-0.9565,-0.9566,0,-1.0185,-1.0101,-1.0039,-1.0014,-0.9947,-0.9918,-0.9888,-0.9839,-0.9804,-0.9753,-0.9729,-0.9672,-0.964,-0.9594,-0.956,-0.9577,-0.9478,-0.9494,-0.9457,-0.9457,-0.9434,-0.9435,-0.9354,-0.942,-0.942,-0.942,-0.9421,0,-1.0125,-1.0074,-1.0026,-0.9988,-0.9929,-0.9898,-0.9839,-0.9808,-0.9764,-0.9717,-0.9698,-0.9654,-0.9614,-0.9563,-0.9536,-0.9468,-0.9454,-0.9435,-0.9427,-0.9434,-0.9436,-0.941,-0.9412,-0.9418,-0.9418,-0.9419,-0.9419,0,-1.0084,-1.0051,-0.9982,-0.9924,-0.9908,-0.9866,-0.9815,-0.9776,-0.9747,-0.9687,-0.9671,-0.9624,-0.9563,-0.9525,-0.9448,-0.9429,-0.9353,-0.935,-0.9371,-0.9367,-0.9331,-0.9333,-0.9227,-0.921,-0.9291,-0.929,-0.929,0,-1.0046,-1.0006,-0.9944,-0.9912,-0.9882,-0.9831,-0.9796,-0.9763,-0.9727,-0.9664,-0.9631,-0.9569,-0.9518,-0.9421,-0.9378,-0.9317,-0.9309,-0.9277,-0.93,-0.9307,-0.9304,-0.9305,-0.9299,-0.9271,-0.9271,-0.927,-0.927,0,-0.9981,-0.9966,-0.9917,-0.9861,-0.982,-0.9774,-0.9728,-0.9702,-0.9661,-0.962,-0.9559,-0.9519,-0.944,-0.9377,-0.9313,-0.9279,-0.9265,-0.9263,-0.9251,-0.9255,-0.9267,-0.9256,-0.9356,-0.9265,-0.9265,-0.9266,-0.9266,-0.9266,-0.9937,-0.9899,-0.9849,-0.9794,-0.9756,-0.9713,-0.9672,-0.9638,-0.9587,-0.9521,-0.9505,-0.9438,-0.9385,-0.9297,-0.9262,-0.9208,-0.9212,-0.9195,-0.919,-0.9185,-0.9182,-0.928,-0.9197,-0.9197,-0.9197,-0.9197,-0.9197,0,-0.9867,-0.9834,-0.9784,-0.972,-0.9676,-0.9671,-0.9619,-0.9581,-0.9524,-0.9476,-0.9426,-0.9353,-0.9292,-0.9244,-0.9181,-0.9146,-0.9138,-0.913,-0.913,-0.9121,-0.9184,-0.92,-0.9137,-0.9137,-0.9137,-0.9137,-0.9137,-0.9137,-0.9825,-0.976,-0.9739,-0.9654,-0.962,-0.9557,-0.9527,-0.9486,-0.9447,-0.9367,-0.9317,-0.9287,-0.9238,-0.917,-0.9112,-0.9099,-0.9075,-0.9067,-0.9052,-0.9111,-0.9118,-0.9124,-0.9138,-0.9063,-0.9063,-0.8993,-0.8993,-0.8992]}]]